Location: Peterborough
(44.3048°N, 78.3199°W)
Time: 04:16:46
(UTC-04:00)

ISS - Pass Details

Date: 12 May 2025
Orbit: 415 x 418 km, 51.6° (Epoch: 20 June)

Event Time Altitude Azimuth Distance (km) Brightness Sun altitude
Rises 23:53:25 0° 286° (WNW) 2,358 0.5 -25.1°
Reaches altitude 10° 23:55:49 10° 302° (WNW) 1,494 -0.3 -25.3°
Maximum altitude 23:58:33 23° 357° (N) 948 -1.3 -25.4°
Enters shadow 00:00:13 16° 37° (NE) 1,182 -1.1 -25.5°
